Temperature
8 8 7 7 7 6 6 6 6 6 6 6 6 6 6 6 5 5 5 5 5 5 5 5 5 5 5 5 6 6 6 6 6 6 7 7 7 7
7 7 7 6 6 6 6 6 5 5 5 5 5 5 5 5 5 5 4 4 4 4 4 4 4 4 5 5 5 5 6 6 6 6 6 6 6 6
6 6 6 5 5 5 5 5 5 5 5 5 4 4 4 4 4 4 4 4 3 3 3 3 3 3 4 4 4 4 5 5 5 5 5 5 6 6
5 5 5 5 5 5 5 5 5 4 4 4 4 3 3 3 3 3 3 3 3 3 2 2 3 3 3 3 3 4 4 4 4 4 5 5 5 5
4 4 4 4 4 4 4 4 4 4 4 4 3 3 3 2 2 2 2 2 2 2 2 2 2 2 2 2 3 3 3 3 3 4 4 4 4 4
3 3 3 3 3 3 3 3 3 3 3 3 3 2 2 2 2 2 2 2 2 2 1 1 2 2 2 2 2 2 2 3 3 3 3 3 3 3
2 2 2 2 2 2 3 3 3 3 3 2 2 2 2 1 1 1 1 1 1 1 1 1 1 1 1 1 1 2 2 2 2 2 2 2 2 2
2 2 2 2 2 2 2 2 2 2 2 2 2 1 1 1 1 1 1 0 0 0 0 0 0 0 1 1 1 1 1 1 1 1 2 2 2 2
1 1 1 1 1 1 1 1 1 1 1 1 1 1 1 0 0 0 0 -0 -0 -0 -0 -0 -0 -0 -0 0 0 0 0 0 0 1 1 1 1 1
1 1 1 1 1 1 1 1 1 1 1 1 1 0 0 -0 -0 -0 -0 -0 -1 -1 -1 -1 -1 -1 -0 -0 -0 -0 -0 -0 -0 -0 -0 -0 -0 -0
0 0 0 0 0 0 1 1 0 0 0 0 0 -0 -0 -0 -0 -1 -1 -1 -1 -1 -1 -1 -1 -1 -1 -1 -1 -1 -1 -1 -1 -1 -1 -1 -1 -1
0 0 0 0 0 0 0 0 0 -0 -0 -0 -0 -0 -1 -1 -1 -1 -1 -1 -2 -2 -2 -2 -2 -2 -2 -2 -2 -2 -2 -2 -2 -2 -2 -2 -2 -2
0 0 0 0 0 -0 -0 -0 -0 -0 -0 -1 -1 -1 -1 -1 -1 -1 -2 -2 -2 -2 -3 -3 -2 -2 -3 -2 -2 -2 -2 -2 -3 -2 -2 -2 -2 -2
0 0 -0 -0 -0 -0 -0 -0 -0 -0 -0 -1 -1 -1 -1 -1 -2 -2 -2 -2 -2 -2 -3 -3 -3 -3 -3 -3 -2 -2 -3 -3 -3 -3 -3 -3 -3 -3
0 -0 -0 -0 -0 -0 -0 -1 -1 -1 -1 -1 -1 -1 -1 -2 -2 -2 -2 -2 -3 -3 -3 -3 -4 -4 -4 -4 -3 -3 -3 -3 -3 -3 -3 -3 -3 -3
0 -0 -0 -0 -0 -0 -1 -1 -1 -1 -1 -1 -1 -1 -2 -2 -2 -2 -3 -3 -3 -3 -4 -4 -4 -4 -4 -4 -4 -3 -3 -4 -4 -4 -4 -4 -4 -4
-0 -0 -0 -0 -0 -0 -1 -1 -1 -1 -1 -1 -2 -2 -2 -2 -3 -3 -3 -3 -3 -3 -4 -5 -5 -4 -4 -4 -4 -3 -4 -4 -4 -5 -5 -4 -4 -4
-1 -0 -0 -1 -1 -1 -1 -1 -1 -2 -2 -2 -2 -2 -2 -3 -3 -3 -4 -4 -4 -4 -4 -5 -5 -5 -5 -4 -4 -4 -4 -5 -5 -5 -5 -5 -4 -4
-1 -0 -1 -1 -1 -1 -1 -1 -2 -2 -2 -2 -3 -3 -3 -3 -3 -4 -4 -4 -4 -4 -4 -5 -5 -6 -6 -5 -4 -5 -5 -5 -6 -6 -6 -6 -5 -4
-1 -0 -1 -1 -1 -2 -2 -2 -2 -3 -3 -3 -3 -3 -4 -4 -4 -4 -4 -5 -5 -5 -5 -5 -6 -7 -7 -7 -6 -4 -5 -6 -6 -6 -6 -6 -6 -5
-1 -1 -1 -1 -1 -2 -2 -2 -3 -3 -3 -3 -3 -4 -4 -4 -4 -5 -5 -5 -5 -5 -5 -5 -6 -7 -8 -8 -7 -5 -5 -6 -7 -7 -7 -7 -6 -5
-1 -1 -1 -1 -2 -2 -2 -3 -3 -3 -4 -4 -4 -4 -5 -5 -5 -5 -5 -6 -6 -6 -6 -6 -7 -8 -8 -8 -8 -6 -5 -6 -7 -7 -7 -8 -8 -7
-1 -1 -1 -2 -2 -2 -3 -3 -3 -4 -4 -4 -4 -5 -5 -5 -6 -6 -6 -6 -6 -6 -7 -7 -7 -8 -8 -8 -8 -8 -7 -6 -7 -7 -6 -7 -8 -8
Wind_Speed
1 1 1 0 0 1 1 2 3 3 3 3 2 2 5 7 8 9 9 10 11 12 13 14 14 13 11 10 9 7 6 6 4 1 4 7 11 13
0 1 1 1 1 1 1 1 1 2 2 2 2 2 3 4 7 8 8 9 10 11 12 13 14 14 13 12 12 11 8 6 3 1 1 4 7 9
2 2 2 2 2 2 1 1 1 0 2 2 2 2 2 3 4 6 7 8 9 10 11 12 13 13 14 15 14 14 12 10 8 6 4 3 4 4
2 2 2 2 3 2 2 2 2 1 1 2 2 1 2 2 2 3 4 6 7 9 10 10 11 12 12 13 14 14 14 14 13 11 8 6 5 5
3 3 2 3 3 2 3 2 2 2 1 2 2 1 2 1 2 2 3 4 6 8 9 9 10 10 11 12 13 13 13 12 12 12 12 10 8 7
4 4 4 3 3 2 2 2 1 2 2 3 2 2 2 2 2 2 2 3 3 6 8 8 9 9 10 10 11 12 12 12 12 12 11 11 9 8
4 4 4 4 4 3 2 1 1 2 2 2 2 2 1 1 1 1 1 2 2 3 4 5 6 6 8 9 9 9 9 9 9 9 9 9 8 7
4 3 3 3 4 5 5 4 3 2 2 2 2 2 2 1 1 1 1 1 2 3 3 3 4 3 5 7 7 8 7 7 7 7 7 7 6 6
5 3 2 2 4 3 4 6 6 5 3 4 3 3 3 3 2 1 0 1 2 3 2 2 3 3 5 7 7 5 6 6 6 6 6 6 5 5
4 4 3 2 2 3 3 3 3 3 2 3 4 3 3 3 3 3 2 1 2 2 2 1 3 3 4 8 6 4 5 5 6 6 6 6 5 5
3 3 4 3 4 5 4 2 1 1 2 4 4 4 4 4 4 3 2 2 1 2 2 1 2 3 3 3 6 7 6 6 6 6 6 6 6 6
2 3 6 6 5 5 5 4 3 2 0 1 2 2 2 2 2 3 3 2 1 2 2 1 2 3 4 3 3 6 7 7 7 7 8 8 8 5
4 3 4 7 7 6 6 5 5 4 3 2 1 1 0 0 1 2 3 4 3 3 1 1 1 1 1 4 4 3 4 5 7 8 9 9 9 7
5 4 5 9 8 7 5 6 6 4 3 2 2 2 2 2 2 3 4 5 5 5 4 3 2 2 1 2 4 3 3 5 6 5 8 9 8 9
6 8 9 10 9 6 7 7 5 3 3 3 3 3 3 3 2 1 2 3 5 6 7 7 5 3 3 4 4 4 4 4 4 3 4 4 6 7
6 8 10 10 8 7 6 5 3 4 4 4 3 3 2 2 3 3 2 1 2 3 3 7 9 6 4 5 6 6 5 4 3 3 4 6 9 10
5 3 3 3 4 4 4 4 4 4 4 4 4 4 3 3 3 3 3 2 2 2 3 2 5 9 9 6 6 8 8 7 7 5 5 6 6 8
8 5 6 6 7 6 6 6 5 6 5 5 5 5 4 4 4 3 3 4 4 4 4 3 2 2 3 6 11 10 7 6 5 5 4 5 8 6
9 7 7 8 7 7 6 6 6 6 5 5 6 5 5 5 4 4 4 4 5 5 4 3 3 3 3 5 5 9 6 4 3 4 5 6 8 8
8 8 9 8 8 8 7 7 6 6 5 5 6 6 6 5 5 5 5 5 6 5 5 4 5 6 6 5 5 4 8 7 5 6 6 6 8 13
9 9 9 9 8 8 8 7 7 7 6 6 6 7 6 6 6 6 6 9 8 6 7 6 6 9 5 3 6 7 5 12 12 8 5 6 8 6
10 10 9 9 8 8 8 7 7 7 7 7 7 7 6 6 7 8 7 7 7 7 8 6 4 4 4 7 10 11 10 8 12 18 19 17 7 5
9 9 8 8 8 7 7 8 9 8 7 7 7 7 7 6 7 7 7 7 7 7 7 6 4 5 7 8 10 11 13 12 9 9 11 18 23 28
Wind_Direction
261 288 262 276 328 286 264 233 225 231 213 147 120 50 53 57 53 49 37 30 31 28 26 23 21 19 16 16 17 8 357 345 333 293 204 204 208 209
77 81 67 47 39 13 327 296 257 231 207 124 114 95 57 64 55 51 40 32 31 31 28 27 26 28 31 31 29 25 19 19 16 15 174 186 198 203
93 102 80 60 60 25 11 17 9 251 194 118 105 99 74 55 42 45 41 33 24 27 29 30 32 32 33 35 35 35 38 42 43 40 59 100 127 153
120 108 91 83 70 44 38 41 32 18 149 151 121 108 83 64 44 38 31 28 22 22 26 28 31 33 34 36 38 39 39 40 41 43 52 63 82 99
109 106 96 99 83 62 56 47 23 22 53 126 123 103 82 65 56 35 30 18 18 18 20 22 27 33 36 38 38 39 39 39 41 48 51 56 64 71
94 93 89 98 105 92 66 44 39 63 76 104 111 99 84 58 64 39 12 7 2 6 11 17 23 29 32 34 35 36 38 40 44 48 51 52 54 56
99 88 88 100 111 109 101 74 80 95 100 108 114 107 95 67 57 13 0 336 345 4 350 1 7 14 17 20 24 28 31 35 39 42 44 47 47 47
129 105 89 73 83 85 88 87 98 123 144 136 136 147 148 133 104 44 22 8 314 347 1 341 4 356 351 357 8 21 28 33 36 36 34 32 30 26
150 150 142 118 91 70 69 60 50 61 110 150 152 165 165 176 157 137 173 217 265 311 354 327 347 338 335 348 355 18 32 34 30 26 22 17 11 3
160 165 161 156 164 144 114 80 47 30 64 100 138 156 168 175 178 179 191 236 294 338 22 323 332 321 322 338 354 19 25 21 15 10 5 2 355 344
180 183 178 192 202 165 140 133 90 354 76 128 142 158 170 175 167 128 110 72 348 337 9 9 333 323 318 321 349 6 5 358 355 354 352 346 336 331
205 214 209 206 212 185 160 166 188 220 196 86 67 52 45 40 120 145 152 143 183 282 335 22 356 359 335 313 326 345 353 350 351 347 340 332 324 322
203 214 230 222 217 212 191 187 211 199 182 183 203 261 319 141 139 164 169 160 174 233 244 102 31 12 328 307 313 321 334 330 332 329 330 326 319 311
204 208 220 226 224 225 213 209 222 195 165 186 208 219 220 229 229 220 217 212 213 224 225 181 188 189 211 301 293 309 312 305 305 307 315 321 321 317
208 213 218 226 226 230 230 230 225 186 180 207 222 224 218 218 205 222 245 248 258 257 245 222 197 195 197 231 268 287 308 299 294 293 302 305 304 304
210 220 223 227 222 220 234 240 211 198 202 214 222 219 195 187 202 202 213 232 288 293 259 230 220 196 219 236 248 264 257 272 292 285 293 291 285 277
180 185 198 208 216 216 222 228 221 221 227 211 212 216 215 211 217 204 203 201 218 251 275 270 242 231 228 231 253 258 260 260 263 273 285 290 279 265
201 201 212 218 223 225 226 227 222 222 220 215 215 217 220 219 225 215 207 214 236 247 250 252 275 310 295 257 234 251 257 259 261 252 245 277 289 274
212 213 218 220 223 222 222 221 224 221 212 211 215 216 216 218 219 224 224 232 244 250 248 230 210 210 264 283 276 229 226 247 259 260 246 250 274 283
215 218 221 222 221 222 222 223 225 220 212 214 215 215 211 213 219 225 226 232 245 254 255 233 218 216 229 251 267 268 234 235 252 266 270 267 271 281
220 222 223 221 221 221 222 220 219 219 215 211 216 215 212 211 223 227 229 243 246 248 253 250 236 240 236 241 264 265 245 243 248 250 260 278 287 280
222 223 223 221 220 220 219 218 220 221 219 219 219 217 213 213 224 227 228 234 239 243 253 256 234 229 217 240 260 273 281 270 262 267 263 255 253 258
223 223 223 221 220 218 218 218 219 223 221 219 219 217 214 218 224 227 230 233 239 245 253 260 247 233 241 246 259 270 277 282 283 279 269 262 258 258
Height
1511 1511 1510 1510 1509 1509 1509 1510 1511 1510 1509 1508 1508 1508 1508 1507 1507 1506 1505 1503 1502 1501 1500 1498 1497 1496 1495 1494 1494 1494 1495 1496 1497 1498 1500 1502 1504 1507
1507 1506 1505 1505 1505 1505 1504 1505 1505 1506 1506 1505 1505 1504 1504 1504 1503 1502 1501 1500 1499 1498 1497 1496 1495 1494 1493 1492 1492 1492 1492 1493 1494 1495 1497 1498 1501 1503
1502 1502 1501 1501 1500 1500 1500 1500 1501 1501 1501 1501 1501 1501 1500 1500 1499 1499 1498 1497 1496 1495 1495 1494 1493 1492 1492 1491 1490 1490 1490 1490 1491 1492 1494 1496 1497 1500
1498 1498 1497 1497 1497 1496 1496 1496 1497 1497 1497 1497 1497 1497 1497 1497 1496 1495 1495 1494 1494 1493 1492 1492 1491 1491 1490 1490 1489 1489 1489 1489 1489 1490 1491 1493 1495 1496
1494 1494 1494 1494 1493 1493 1493 1493 1493 1493 1493 1493 1494 1494 1493 1493 1493 1492 1492 1491 1491 1490 1490 1490 1489 1489 1489 1488 1488 1488 1488 1488 1488 1489 1489 1490 1492 1494
1490 1490 1490 1490 1490 1490 1490 1490 1489 1490 1490 1490 1490 1490 1490 1490 1489 1489 1489 1489 1488 1488 1487 1487 1487 1487 1487 1486 1486 1486 1486 1486 1486 1487 1488 1489 1490 1491
1487 1487 1487 1487 1487 1487 1487 1486 1486 1486 1486 1486 1486 1487 1487 1486 1486 1486 1486 1486 1485 1485 1485 1485 1484 1484 1484 1484 1484 1484 1484 1484 1484 1485 1486 1486 1487 1488
1484 1484 1484 1484 1484 1484 1484 1483 1484 1484 1483 1483 1483 1484 1484 1484 1484 1484 1483 1483 1483 1483 1482 1482 1482 1482 1481 1481 1481 1481 1481 1481 1482 1482 1483 1483 1484 1485
1481 1481 1481 1481 1481 1481 1481 1481 1481 1481 1481 1481 1481 1481 1481 1481 1481 1481 1481 1481 1480 1480 1480 1480 1479 1479 1479 1478 1478 1478 1478 1478 1478 1479 1479 1480 1480 1481
1478 1479 1479 1479 1479 1479 1479 1479 1479 1479 1478 1478 1478 1478 1479 1479 1479 1479 1479 1478 1478 1478 1478 1478 1477 1477 1476 1476 1475 1475 1475 1475 1475 1475 1475 1476 1476 1476
1476 1476 1476 1476 1476 1476 1477 1477 1477 1476 1476 1476 1476 1476 1476 1476 1477 1477 1477 1476 1476 1476 1476 1475 1475 1474 1474 1473 1473 1473 1473 1472 1472 1472 1472 1472 1472 1472
1474 1474 1474 1474 1474 1474 1475 1475 1475 1475 1475 1475 1475 1474 1474 1475 1475 1475 1475 1475 1474 1474 1473 1473 1473 1472 1471 1471 1471 1471 1470 1470 1469 1469 1468 1468 1468 1468
1471 1472 1472 1472 1472 1472 1473 1473 1473 1473 1473 1473 1473 1473 1473 1473 1473 1473 1473 1473 1472 1472 1472 1471 1470 1470 1470 1469 1468 1468 1467 1467 1466 1465 1465 1464 1464 1463
1469 1470 1470 1470 1470 1470 1470 1471 1471 1471 1471 1471 1471 1471 1471 1471 1471 1471 1470 1470 1470 1470 1469 1468 1468 1467 1466 1465 1465 1464 1464 1463 1462 1461 1460 1460 1459 1459
1467 1467 1467 1468 1468 1468 1468 1468 1468 1468 1468 1468 1468 1468 1468 1468 1468 1468 1467 1467 1467 1466 1466 1465 1465 1464 1463 1461 1460 1460 1459 1458 1457 1456 1456 1455 1454 1454
1463 1464 1464 1465 1465 1465 1465 1465 1465 1465 1465 1465 1465 1465 1465 1465 1465 1464 1464 1464 1463 1463 1462 1461 1460 1460 1458 1457 1456 1454 1454 1453 1453 1452 1450 1449 1449 1448
1460 1460 1460 1461 1461 1462 1462 1462 1462 1462 1461 1461 1461 1461 1461 1461 1461 1460 1460 1459 1459 1459 1458 1457 1456 1455 1454 1453 1451 1450 1449 1448 1447 1445 1444 1443 1443 1443
1455 1455 1456 1457 1457 1457 1457 1458 1458 1457 1457 1457 1457 1457 1456 1456 1456 1456 1455 1455 1454 1454 1454 1453 1451 1450 1449 1448 1447 1444 1444 1443 1442 1440 1438 1436 1436 1437
1450 1450 1451 1452 1452 1452 1453 1453 1453 1453 1452 1452 1452 1452 1452 1451 1451 1451 1450 1450 1449 1449 1448 1447 1446 1445 1443 1441 1441 1440 1439 1437 1436 1435 1433 1431 1428 1428
1444 1445 1445 1446 1447 1447 1447 1447 1447 1447 1447 1446 1446 1446 1446 1446 1445 1445 1445 1444 1444 1443 1442 1442 1441 1440 1438 1437 1434 1433 1434 1432 1430 1428 1426 1424 1421 1421
1438 1439 1439 1440 1440 1441 1441 1441 1441 1441 1440 1440 1440 1440 1440 1439 1439 1439 1438 1438 1437 1437 1436 1436 1435 1434 1432 1430 1428 1425 1427 1426 1423 1421 1419 1416 1413 1412
1431 1432 1432 1433 1433 1434 1434 1434 1434 1434 1433 1433 1433 1433 1433 1433 1433 1432 1432 1432 1431 1430 1430 1430 1429 1427 1426 1424 1421 1419 1418 1418 1417 1415 1413 1411 1408 1404
1424 1424 1425 1425 1426 1426 1426 1426 1426 1426 1426 1426 1426 1426 1426 1426 1426 1426 1425 1425 1424 1424 1423 1422 1422 1420 1418 1417 1414 1412 1411 1409 1408 1406 1406 1405 1402 1399